Grafenwoehr, Germany

10:26 AM CET on January 22, 2018 (GMT +0100)
Grafenwohr Army Air Field

Weather History for ETIC - May, 2013

Change the Weather History Date:

Tuesday, May 14, 2013

  Actual Average Record
Temperature  
Mean Temperature 55 °F -  
Max Temperature 62 °F - - ()
Min Temperature 46 °F - - ()
Degree Days  
Heating Degree Days 10    
Growing Degree Days 5 (Base 50)    
Moisture  
Dew Point 43 °F    
Average Humidity 71    
Maximum Humidity 87    
Minimum Humidity 45    
Precipitation  
Precipitation 0.00 in - - ()
Sea Level Pressure  
Sea Level Pressure 29.91 in    
Wind  
Wind Speed 3 mph ()    
Max Wind Speed 9 mph    
Max Gust Speed -    
Visibility 6.2 miles    
Events Rain    
T = Trace of Precipitation, MM = Missing Value Source: Averaged Metar Reports

Daily Weather History Graph

Daily Weather History Graph

Search for Another Location

Airport or City:

Trip Planner

Search our weather history database for the weather conditions in past years. The results will help you decide how hot, cold, wet, or windy it might be!

Date:

Astronomy

May. 14, 2013 Rise Set
Actual Time 5:28 AM CEST 8:49 PM CEST
Civil Twilight 4:49 AM CEST 9:28 PM CEST
Nautical Twilight 3:58 AM CEST 10:19 PM CEST
Astronomical Twilight 2:51 AM CEST 11:28 PM CEST
Moon 8:53 AM CEST (5/14) No Moon Set
Length of Visible Light 16h 38m
Length of Day
15h 20m
Waxing Crescent, 17% of the Moon is Illuminated
May 14
Waxing Crescent
May 18
First Quarter
May 25
Full
May 31
Last Quarter
Jun 8
New

Hourly Weather History & Observations

Time (CEST) Temp. Dew Point Humidity Pressure Visibility Wind Dir Wind Speed Gust Speed Precip Events Conditions
12:58 AM 48.2 °F 44.6 °F 87% 29.99 in 6.2 mi SSW 4.6 mph - N/A   Overcast
1:58 AM 48.2 °F 44.6 °F 87% 29.99 in 6.2 mi Variable 5.8 mph - N/A   Overcast
2:58 AM 50.0 °F 44.6 °F 82% 29.97 in 6.2 mi SW 3.5 mph - N/A   Overcast
3:58 AM 48.2 °F 42.8 °F 82% 29.96 in 6.2 mi South 4.6 mph - N/A   Scattered Clouds
4:25 AM 48.2 °F 42.8 °F 82% 29.95 in 6.2 mi SSW 2.3 mph - N/A   Mostly Cloudy
4:58 AM 48.2 °F 44.6 °F 87% 29.96 in 6.2 mi SE 2.3 mph - N/A   Overcast
5:58 AM 48.2 °F 44.6 °F 87% 29.96 in 6.2 mi Calm Calm - N/A   Overcast
6:31 AM 48.2 °F 42.8 °F 82% 29.94 in 6.2 mi South 3.5 mph - N/A   Mostly Cloudy
6:58 AM 48.2 °F 44.6 °F 87% 29.96 in 6.2 mi South 3.5 mph - N/A   Mostly Cloudy
7:58 AM 50.0 °F 44.6 °F 82% 29.96 in 6.2 mi SSW 4.6 mph - N/A   Overcast
8:58 AM 51.8 °F 44.6 °F 76% 29.95 in 6.2 mi South 4.6 mph - N/A   Overcast
9:19 AM 53.6 °F 44.6 °F 72% 29.94 in 6.2 mi Variable 6.9 mph - N/A Rain Light Rain
9:28 AM 53.6 °F 42.8 °F 67% 29.94 in 6.2 mi WSW 5.8 mph - N/A   Overcast
9:58 AM 53.6 °F 44.6 °F 72% 29.95 in 6.2 mi Variable 4.6 mph - 0.00 in   Mostly Cloudy
10:11 AM 53.6 °F 44.6 °F 72% 29.94 in 6.2 mi Variable 4.6 mph - N/A   Overcast
10:17 AM 53.6 °F 42.8 °F 67% 29.94 in 6.2 mi South 8.1 mph - N/A   Overcast
10:58 AM 55.4 °F 42.8 °F 63% 29.94 in 6.2 mi South 9.2 mph - N/A   Mostly Cloudy
11:58 AM 57.2 °F 41.0 °F 55% 29.93 in 6.2 mi Variable 6.9 mph - N/A   Overcast
12:58 PM 57.2 °F 39.2 °F 51% 29.92 in 6.2 mi Variable 6.9 mph - N/A   Overcast
1:58 PM 59.0 °F 41.0 °F 51% 29.90 in 6.2 mi Variable 3.5 mph - N/A   Mostly Cloudy
3:58 PM 60.8 °F 39.2 °F 45% 29.86 in 6.2 mi Variable 1.2 mph - N/A   Overcast
4:58 PM 62.6 °F 42.8 °F 48% 29.84 in 6.2 mi Variable 3.5 mph - N/A   Mostly Cloudy
5:58 PM 62.6 °F 42.8 °F 48% 29.82 in 6.2 mi ESE 2.3 mph - N/A   Overcast
6:58 PM 60.8 °F 44.6 °F 55% 29.81 in 6.2 mi Variable 1.2 mph - N/A   Mostly Cloudy
7:58 PM 59.0 °F 44.6 °F 59% 29.80 in 6.2 mi Calm Calm - N/A   Clear
8:58 PM 55.4 °F 46.4 °F 72% 29.80 in 6.2 mi Calm Calm - N/A   Clear
9:58 PM 51.8 °F 44.6 °F 76% 29.79 in 6.2 mi Calm Calm - N/A   Clear
10:58 PM 48.2 °F 44.6 °F 87% 29.78 in 6.2 mi Calm Calm - N/A   Clear
11:58 PM 46.4 °F 42.8 °F 87% 29.77 in 6.2 mi Calm Calm - N/A   Clear